Millbury, OH

6:11 AM EST on December 03, 2016 (GMT -0500)
Metcalf

Weather History for KTDZ - February, 2013

Change the Weather History Date:

Sunday, February 17, 2013

  Actual Average (KTOL) Record (KTOL)
Temperature  
Mean Temperature 18 °F 29 °F  
Max Temperature 25 °F 36 °F 62 °F (1911)
Min Temperature 12 °F 21 °F -12 °F (1973)
Degree Days  
Heating Degree Days 46 36  
Month to date heating degree days 646  
Since 1 July heating degree days 4195  
Cooling Degree Days 0 0  
Month to date cooling degree days 0  
Year to date cooling degree days 0  
Moisture  
Dew Point 8 °F    
Average Humidity 62    
Maximum Humidity 84    
Minimum Humidity 41    
Precipitation  
Precipitation 0.00 in 0.08 in 1.96 in (1998)
Month to date precipitation 1.21  
Year to date precipitation 3.26  
Snow  
Snow 0.00 in 0.30 in - ()
Month to date snowfall 6.0  
Since 1 July snowfall 27.1  
Snow Depth -    
Sea Level Pressure  
Sea Level Pressure 30.19 in    
Wind  
Wind Speed 9 mph (WNW)    
Max Wind Speed 17 mph    
Max Gust Speed 22 mph    
Visibility 10 miles    
Events      
T = Trace of Precipitation, MM = Missing Value Source: NWS Daily Summary

Daily Weather History Graph

Daily Weather History Graph

Search for Another Location

Airport or City:

Trip Planner

Search our weather history database for the weather conditions in past years. The results will help you decide how hot, cold, wet, or windy it might be!

Date:

Astronomy

Feb. 17, 2013 Rise Set
Actual Time 7:26 AM EST 6:10 PM EST
Civil Twilight 6:57 AM EST 6:38 PM EST
Nautical Twilight 6:25 AM EST 7:11 PM EST
Astronomical Twilight 5:53 AM EST 7:43 PM EST
Moon 11:12 AM EST (2/17) 1:10 AM EST (2/17)
Length of Visible Light 11h 40m
Length of Day
10h 44m
Waxing Crescent, 49% of the Moon is Illuminated
Feb 17
Waxing Crescent
Feb 17
First Quarter
Feb 25
Full
Mar 4
Last Quarter
Mar 11
New

Hourly Weather History & Observations

Time (EST) Temp. Windchill Dew Point Humidity Pressure Visibility Wind Dir Wind Speed Gust Speed Precip Events Conditions
12:53 AM 17.1 °F 5.8 °F 10.0 °F 74% 30.09 in 10.0 mi WNW 9.2 mph - N/A   Mostly Cloudy
1:53 AM 16.0 °F 4.4 °F 10.9 °F 81% 30.09 in 10.0 mi WNW 9.2 mph - N/A   Partly Cloudy
2:53 AM 17.1 °F 5.0 °F 10.9 °F 77% 30.10 in 10.0 mi NW 10.4 mph - N/A   Partly Cloudy
3:53 AM 16.0 °F 6.3 °F 10.9 °F 81% 30.11 in 10.0 mi NW 6.9 mph - N/A   Mostly Cloudy
4:53 AM 15.1 °F 5.2 °F 10.0 °F 80% 30.12 in 10.0 mi WNW 6.9 mph - N/A   Clear
5:53 AM 14.0 °F 2.0 °F 10.0 °F 84% 30.14 in 10.0 mi NW 9.2 mph - N/A   Clear
6:53 AM 12.9 °F 2.6 °F 9.0 °F 84% 30.17 in 10.0 mi NW 6.9 mph - N/A   Clear
7:53 AM 14.0 °F 3.9 °F 9.0 °F 80% 30.19 in 10.0 mi NW 6.9 mph - N/A   Clear
8:53 AM 16.0 °F 2.9 °F 8.1 °F 71% 30.21 in 10.0 mi NW 11.5 mph - N/A   Clear
9:15 AM 17.6 °F 7.3 °F 8.6 °F 68% 30.18 in 10.0 mi NW 8.1 mph - N/A   Mostly Cloudy
9:53 AM 18.0 °F 7.7 °F 5.0 °F 57% 30.22 in 10.0 mi NNW 8.1 mph - N/A   Overcast
10:53 AM 19.9 °F 7.9 °F 8.1 °F 60% 30.23 in 10.0 mi NW 11.5 mph 17.3 mph N/A   Mostly Cloudy
11:14 AM 21.2 °F 9.5 °F 8.6 °F 58% 30.20 in 10.0 mi NW 11.5 mph - N/A   Mostly Cloudy
11:25 AM 21.2 °F 10.1 °F 6.8 °F 54% 30.20 in 10.0 mi West 10.4 mph 17.3 mph N/A   Scattered Clouds
11:53 AM 21.9 °F 11.0 °F 7.0 °F 53% 30.23 in 10.0 mi WNW 10.4 mph - N/A   Partly Cloudy
12:53 PM 24.1 °F 10.6 °F 5.0 °F 44% 30.22 in 10.0 mi WNW 17.3 mph 21.9 mph N/A   Scattered Clouds
1:53 PM 24.1 °F 11.5 °F 3.9 °F 42% 30.22 in 10.0 mi WNW 15.0 mph - N/A   Mostly Cloudy
2:53 PM 25.0 °F 13.6 °F 3.9 °F 41% 30.21 in 10.0 mi WNW 12.7 mph - N/A   Overcast
3:53 PM 25.0 °F 17.1 °F 3.9 °F 41% 30.21 in 10.0 mi NW 6.9 mph - N/A   Mostly Cloudy
4:53 PM 24.1 °F 14.4 °F 5.0 °F 44% 30.22 in 10.0 mi WNW 9.2 mph - N/A   Partly Cloudy
5:53 PM 25.0 °F - 5.0 °F 43% 30.22 in 10.0 mi Calm Calm - N/A   Overcast
6:53 PM 21.9 °F 15.7 °F 8.1 °F 55% 30.24 in 10.0 mi West 4.6 mph - N/A   Mostly Cloudy
7:53 PM 21.9 °F - 8.1 °F 55% 30.23 in 10.0 mi Calm Calm - N/A   Clear
8:53 PM 18.0 °F 11.1 °F 8.1 °F 65% 30.24 in 10.0 mi SE 4.6 mph - N/A   Clear
9:53 PM 18.0 °F 12.7 °F 9.0 °F 68% 30.25 in 10.0 mi ESE 3.5 mph - N/A   Clear
10:53 PM 19.0 °F 10.0 °F 8.1 °F 62% 30.24 in 10.0 mi SE 6.9 mph - N/A   Clear